Location: Ajisawe
(8.4333°N, 4.3833°E)
Time: 21:46:45
(UTC+00:00)

Vanguard 2 Rocket - Pass Details

Date: 26 April 2021
Orbit: 554 x 3326 km, 32.9° (Epoch: 16 May)

Event Time Altitude Azimuth Distance (km) Brightness Sun altitude
Rises 10:42:07 0° 266° (W) 4,831 10.5 74.8°
Reaches altitude 10° 10:45:05 10° 273° (W) 4,173 10.3 75.5°
Maximum altitude 10:56:27 42° 341° (NNW) 3,309 10.5 78.0°
Drops below altitude 10° 11:13:50 10° 47° (NE) 6,186 11.4 81.7°
Sets 11:19:33 0° 54° (NE) 7,305 11.6 82.7°
